Date,TemperatureHighF,TemperatureAvgF,TemperatureLowF,DewpointHighF,DewpointAvgF,DewpointLowF,HumidityHigh,HumidityAvg,HumidityLow,PressureMaxIn,PressureMinIn,WindSpeedMaxMPH,WindSpeedAvgMPH,GustSpeedMaxMPH,PrecipitationSumIn
2014-1-1,52.5,32.8,20.5,31.7,23.0,19.0,96,71,31,30.50,30.30,11,2,11,0.00
2014-1-2,52.2,43.1,30.6,31.9,23.3,18.8,71,46,30,30.40,29.95,19,7,25,0.00
2014-1-3,51.4,37.6,19.8,36.7,26.3,16.7,97,68,33,30.23,29.79,23,7,35,0.00
2014-1-4,21.9,18.3,12.7,21.2,16.6,8.1,99,93,67,30.44,30.21,8,1,12,0.00
2014-1-5,26.8,3.2,-3.5,-1.7,-4.5,-6.8,88,71,26,30.84,30.58,6,2,7,0.00
2014-1-6,38.1,25.4,0.9,26.1,13.1,-1.7,90,61,34,30.58,30.24,13,4,13,0.00
2014-1-7,41.0,32.4,27.7,28.3,25.1,21.0,87,75,45,30.24,30.17,10,2,14,0.00
2014-1-8,41.9,38.7,36.0,29.6,27.8,26.0,73,65,54,30.17,29.95,11,5,16,0.00
2014-1-9,51.4,39.2,33.3,30.6,24.7,16.4,68,56,34,29.99,29.87,13,5,17,0.00
2014-1-10,45.7,37.8,31.5,27.6,24.1,17.1,71,58,46,30.08,29.84,14,6,17,0.00
2014-1-11,56.8,44.2,36.5,38.2,28.8,21.5,65,55,44,30.06,29.56,25,9,31,0.00
2014-1-12,45.7,37.5,34.7,30.3,23.1,19.0,83,56,37,30.11,29.67,17,7,21,0.00
2014-1-13,46.4,40.1,28.2,30.9,28.6,26.8,98,65,49,30.51,30.00,24,7,24,0.00
2014-1-14,60.4,35.1,16.0,37.4,28.4,15.3,99,80,41,30.62,30.46,11,2,14,0.00
2014-1-15,52.5,42.2,31.8,27.9,24.7,21.4,79,51,31,30.54,30.37,23,5,23,0.00
2014-1-16,62.4,34.8,19.9,30.5,24.0,17.5,91,68,26,30.59,30.43,8,1,9,0.00
2014-1-17,64.8,39.0,24.1,26.7,21.7,17.6,90,54,17,30.47,30.32,10,3,13,0.00
2014-1-18,52.5,32.4,18.7,27.0,21.6,17.7,97,70,28,30.49,30.23,21,3,21,0.00
2014-1-19,55.2,44.1,25.7,23.0,18.6,12.9,76,39,19,30.51,30.17,13,5,16,0.00
2014-1-20,54.1,33.4,14.4,24.3,18.2,13.0,95,60,25,30.60,30.46,12,3,17,0.00
2014-1-21,59.9,39.9,29.5,25.6,20.9,17.6,72,48,23,30.48,30.44,9,3,13,0.00
2014-1-22,32.9,30.1,24.8,30.1,25.0,21.8,94,82,70,30.62,30.39,8,1,8,0.00
2014-1-23,40.8,24.6,13.8,31.5,21.5,13.2,99,89,60,30.62,30.52,7,2,10,0.00
2014-1-24,60.3,42.6,32.2,30.0,26.7,25.2,81,56,29,30.56,30.47,14,4,14,0.00
2014-1-25,54.0,37.9,30.0,29.5,27.6,24.9,85,67,35,30.49,30.29,10,3,12,0.00
2014-1-26,37.8,26.8,17.4,32.7,19.8,7.6,98,75,48,30.57,30.23,14,2,16,0.00
2014-1-27,39.2,16.2,-0.9,14.0,6.8,-3.3,91,70,32,30.53,30.46,8,2,8,0.00
2014-1-28,47.7,20.9,-1.1,25.2,5.8,-6.9,93,61,10,30.51,30.15,14,3,16,0.00
2014-1-29,45.0,38.4,20.8,34.6,29.2,19.7,96,70,58,30.15,29.74,14,4,15,0.00
2014-1-30,20.7,10.7,5.2,19.5,6.7,0.8,95,84,63,30.23,29.99,8,2,11,0.00
2014-1-31,21.7,9.3,0.0,13.3,5.3,-2.2,93,84,56,30.26,29.99,17,2,20,0.00
2014-2-1,38.8,16.4,1.8,13.7,7.2,-0.6,93,71,28,30.33,30.19,10,2,14,0.00
2014-2-2,19.4,14.0,6.3,11.4,9.1,3.6,91,81,66,30.24,30.16,7,2,8,0.00
2014-2-3,14.0,10.6,8.6,10.9,7.5,4.3,89,87,80,30.32,30.19,9,4,13,0.00
2014-2-4,8.6,-5.0,-16.8,-8.0,-13.9,-21.1,80,66,43,30.75,30.64,11,3,15,0.00
2014-2-5,9.5,-15.1,-30.1,-11.2,-23.5,-35.4,80,66,32,30.81,30.64,8,1,9,0.00
2014-2-6,18.5,-13.0,-36.8,-9.5,-25.1,-42.8,80,58,23,30.64,30.11,8,2,10,0.00
2014-2-7,31.5,2.7,-20.2,8.8,-6.1,-24.9,87,69,33,30.12,29.95,8,2,9,0.00
2014-2-8,19.4,3.6,-8.7,3.9,-2.3,-12.0,88,77,48,30.44,30.12,7,2,8,0.00
2014-2-9,30.0,8.0,-4.9,10.6,0.3,-8.4,91,73,33,30.38,30.20,4,1,6,0.00
2014-2-10,38.8,18.1,0.5,27.8,12.6,-1.4,92,81,60,30.26,30.10,14,3,17,0.00
2014-2-11,55.6,38.8,25.0,39.5,25.8,13.0,98,62,25,30.24,30.00,18,5,19,0.00
2014-2-12,56.8,40.2,30.9,35.4,23.5,11.7,71,51,38,30.19,29.79,21,6,24,0.00
2014-2-13,51.3,40.7,28.4,36.3,28.8,19.9,89,63,36,30.17,29.86,26,6,29,0.00
2014-2-14,49.1,37.5,26.8,31.7,23.6,13.0,75,58,33,30.19,29.92,15,5,20,0.00
2014-2-15,52.7,39.5,28.8,35.3,29.3,20.3,88,69,28,30.13,29.79,15,4,21,0.00
2014-2-16,49.8,41.6,34.3,36.4,25.5,14.3,68,53,36,30.14,29.69,24,6,25,0.00
2014-2-17,54.3,41.1,32.7,33.0,20.3,11.9,85,45,25,30.15,29.83,21,9,25,0.00
2014-2-18,51.4,40.1,30.2,26.8,22.5,19.0,78,51,32,30.17,29.73,18,6,22,0.00
2014-2-19,45.3,36.5,23.4,34.0,16.3,7.5,92,45,22,30.13,29.73,21,7,24,0.00
2014-2-20,37.2,27.1,16.2,27.3,17.5,10.5,90,68,48,30.21,29.98,18,4,18,0.00
2014-2-21,41.9,28.3,16.7,24.5,19.7,11.9,94,72,32,30.26,30.04,11,3,14,0.00
2014-2-22,34.0,18.7,10.6,18.5,11.4,7.7,93,75,40,30.31,30.24,11,3,12,0.00
2014-2-23,14.4,8.2,2.3,11.3,3.2,-0.6,88,80,59,30.42,30.31,10,4,15,0.00
2014-2-24,21.2,8.2,0.5,6.5,1.5,-3.1,88,75,45,30.51,30.35,7,2,8,0.00
2014-2-25,38.1,14.3,-12.1,8.1,0.2,-15.2,89,61,18,30.65,30.40,5,2,8,0.00
2014-2-26,44.8,15.8,-6.3,14.0,3.4,-9.3,89,64,27,30.41,30.08,9,2,9,0.00
2014-2-27,40.8,24.3,10.9,29.6,18.3,8.2,94,79,47,30.08,29.81,11,2,13,0.00
2014-2-28,18.0,5.5,-5.6,15.6,-0.4,-9.9,90,76,54,30.43,30.14,19,6,19,0.00
2014-3-1,-1.5,-11.0,-16.8,-9.8,-17.9,-25.1,81,71,43,30.45,30.39,11,4,14,0.00
2014-3-2,14.4,-3.5,-13.5,-3.6,-13.2,-20.2,78,63,37,30.39,30.12,10,2,10,0.00
2014-3-3,62.1,30.1,-5.3,36.6,18.6,-9.9,94,67,24,30.12,29.98,15,4,17,0.00
2014-3-4,58.8,43.3,32.2,32.8,29.3,23.9,89,61,27,30.16,30.00,17,4,17,0.00
2014-3-5,56.7,48.1,38.1,36.8,32.0,27.0,73,55,34,30.16,29.92,27,8,27,0.00
2014-3-6,62.2,41.9,18.0,41.2,30.4,15.3,98,67,30,30.17,29.83,21,4,21,0.00
2014-3-7,57.7,36.6,18.3,33.2,25.4,15.1,93,68,34,30.38,30.16,13,3,13,0.00
2014-3-8,59.2,47.1,30.7,28.7,24.3,16.5,87,45,22,30.40,30.15,21,6,24,0.00
2014-3-9,68.2,55.6,41.5,40.2,33.7,18.7,83,45,25,30.15,30.06,30,8,30,0.00
2014-3-10,46.2,41.6,36.9,40.9,38.2,35.3,98,88,72,30.13,29.99,11,2,11,0.00
2014-3-11,58.3,45.8,30.2,42.3,30.6,25.2,89,57,34,30.56,30.47,14,4,16,0.00
2014-3-12,61.3,42.6,26.8,29.7,25.2,21.6,88,55,25,30.50,30.25,14,4,17,0.00
2014-3-13,61.9,46.4,30.4,26.3,23.2,18.0,79,43,20,30.25,30.13,13,4,14,0.00
2014-3-14,53.4,44.0,31.3,35.7,26.3,18.0,79,51,35,30.18,30.06,21,5,21,0.00
2014-3-15,55.4,44.4,33.6,32.8,24.8,18.6,80,49,25,30.49,30.18,17,4,18,0.00
2014-3-16,68.5,54.5,42.6,24.4,16.0,1.0,38,24,10,30.42,29.92,27,7,27,0.00
2014-3-17,45.3,38.3,33.3,33.8,27.6,17.8,98,68,37,30.01,29.70,18,3,18,0.00
2014-3-18,49.5,37.8,24.1,36.1,24.0,19.6,99,60,36,30.30,30.25,14,3,14,0.00
2014-3-19,55.9,36.6,21.9,29.7,19.7,15.7,89,54,22,30.29,30.09,22,5,22,0.00
2014-3-20,48.2,37.8,25.0,31.6,20.9,10.5,87,54,27,30.42,30.02,20,6,23,0.00
2014-3-21,27.3,20.6,14.9,20.6,15.0,11.6,91,79,60,30.55,30.42,17,4,17,0.00
2014-3-22,39.0,22.8,9.5,21.7,14.1,6.5,89,71,42,30.59,30.33,12,3,12,0.00
2014-3-23,40.1,26.1,17.8,25.2,20.3,15.6,93,80,51,30.48,30.26,14,3,14,0.00
2014-3-24,28.9,21.2,17.1,21.4,16.2,13.6,89,81,60,30.61,30.48,17,5,17,0.00
2014-3-25,65.5,44.3,27.5,31.4,26.6,21.8,92,55,22,30.16,29.81,10,3,10,0.00
2014-3-26,57.6,38.5,26.8,39.4,29.3,25.0,96,73,33,29.89,29.75,21,5,21,0.00
2014-3-27,35.4,30.2,24.3,31.3,27.8,23.1,98,91,82,30.12,29.89,13,3,13,0.00
2014-3-28,59.0,39.6,17.6,34.8,25.2,17.2,99,63,21,30.18,30.03,21,4,21,0.00
2014-3-29,51.1,45.1,38.7,40.0,31.9,24.8,95,62,39,30.04,29.94,15,4,16,0.00
2014-3-30,54.5,36.9,29.3,36.0,29.2,24.7,95,76,35,30.23,29.99,21,5,22,0.00
2014-3-31,51.8,33.5,27.3,28.1,26.9,24.4,98,80,36,30.25,30.08,8,2,9,0.00
2014-4-1,38.7,32.8,26.4,31.9,29.0,24.3,95,86,74,30.09,30.04,12,3,13,0.00
2014-4-2,56.3,38.7,28.4,40.1,30.1,26.4,95,74,34,30.16,30.00,12,2,15,0.00
2014-4-3,63.5,38.9,20.5,34.8,24.3,14.2,99,66,16,30.26,30.13,14,2,14,0.00
2014-4-4,61.3,43.0,26.4,31.6,24.9,18.5,87,54,20,30.14,29.98,18,4,18,0.00
2014-4-5,55.2,42.6,32.9,29.6,26.0,20.5,82,54,27,30.16,30.07,14,4,14,0.00
2014-4-6,58.5,44.5,29.8,34.0,29.2,22.8,76,56,35,30.34,30.09,15,4,17,0.00
2014-4-7,70.2,41.7,27.7,35.8,28.6,22.5,89,65,22,30.40,30.34,13,3,15,0.00
2014-4-8,76.5,58.4,40.8,35.6,31.9,24.9,73,41,15,30.36,30.11,24,6,24,0.00
2014-4-9,66.6,57.9,43.0,38.9,30.9,18.0,51,37,16,30.22,30.03,22,7,22,0.00
2014-4-10,66.6,49.1,35.8,28.2,21.7,10.1,70,39,13,30.25,30.17,15,4,16,0.00
2014-4-11,69.4,54.2,36.9,32.3,25.6,20.9,65,35,18,30.20,30.00,16,5,23,0.00
2014-4-12,44.1,33.3,24.1,36.5,29.9,22.3,99,87,64,30.44,30.09,12,2,18,0.00
2014-4-13,51.1,30.5,21.4,26.3,20.1,11.3,96,71,22,30.54,30.44,10,1,11,0.00
2014-4-14,66.6,42.5,20.3,25.1,14.5,2.6,90,42,10,30.52,30.12,14,4,17,0.00
2014-4-15,53.4,47.7,36.0,37.9,27.0,15.4,96,49,23,30.14,29.98,15,4,19,0.00
2014-4-16,58.8,38.9,27.9,36.3,30.6,26.4,99,77,30,30.22,30.14,11,2,11,0.00
2014-4-17,62.8,46.1,33.8,40.3,32.9,28.7,88,62,35,30.20,29.95,14,3,14,0.00
2014-4-18,58.1,48.5,42.3,43.9,30.7,11.6,98,56,18,30.19,29.93,21,6,25,0.00
2014-4-19,75.0,51.6,29.1,25.7,16.3,7.8,62,30,10,30.21,30.04,16,4,18,0.00
2014-4-20,66.0,51.9,36.5,33.8,21.0,8.9,66,33,11,30.43,30.08,18,6,21,0.00
2014-4-21,77.9,54.3,29.1,31.1,21.2,9.7,79,37,10,30.45,30.10,15,3,15,0.00
2014-4-22,77.7,49.8,32.5,46.6,36.7,27.0,99,66,21,30.10,29.75,12,3,17,0.00
2014-4-23,56.8,44.8,36.3,42.4,29.9,23.4,99,59,29,30.08,29.87,23,6,23,0.00
2014-4-24,63.9,47.2,37.8,39.1,34.5,30.6,83,63,35,30.09,30.01,14,5,18,0.00
2014-4-25,65.7,51.1,35.8,42.6,33.0,28.9,96,52,31,30.06,29.89,15,4,21,0.00
2014-4-26,46.0,38.7,34.3,42.3,36.7,33.6,99,93,77,29.95,29.84,11,2,11,0.00
2014-4-27,64.2,40.7,27.3,39.4,29.1,19.3,99,71,19,30.06,29.92,12,3,17,0.00
2014-4-28,60.1,43.1,28.4,31.6,24.8,16.4,92,55,19,30.55,30.06,14,4,21,0.00
2014-4-29,66.4,44.3,24.4,33.6,23.5,11.8,91,53,13,30.73,30.56,14,3,20,0.00
2014-4-30,76.8,49.4,23.5,33.2,23.6,12.1,92,47,10,30.75,30.52,12,3,12,0.00
2014-5-1,85.5,57.0,28.6,40.7,32.3,26.0,93,49,12,30.53,30.25,9,2,10,0.00
2014-5-2,74.5,51.9,45.3,49.0,41.8,37.9,91,71,28,30.25,30.19,16,3,17,0.00
2014-5-3,45.5,41.3,38.5,43.0,38.9,36.8,98,91,76,30.25,30.11,19,5,19,0.00
2014-5-4,70.3,47.2,38.7,48.4,37.9,29.6,99,78,23,30.11,30.02,13,2,13,0.00
2014-5-5,68.7,48.3,34.0,42.5,36.4,31.9,96,68,29,30.10,30.02,12,2,12,0.00
2014-5-6,61.7,39.7,30.7,41.2,32.4,29.0,96,77,33,30.26,30.07,11,4,14,0.00
2014-5-7,58.3,40.6,31.6,35.0,31.1,28.5,94,71,36,30.26,30.13,11,4,12,0.00
2014-5-8,72.5,43.3,24.1,41.1,28.1,20.4,99,66,14,30.17,29.96,10,2,15,0.00
2014-5-9,65.3,47.3,31.3,44.6,33.7,27.4,92,63,30,30.09,29.91,13,3,18,0.00
2014-5-10,54.7,39.4,28.4,43.4,32.9,26.7,98,79,55,30.34,30.08,21,3,21,0.00
2014-5-11,44.6,35.5,26.4,35.8,32.0,25.7,99,88,65,30.59,30.34,9,2,11,0.00
2014-5-12,65.8,41.3,21.7,36.7,25.3,13.0,99,65,13,30.66,30.57,15,2,15,0.00
2014-5-13,74.1,50.4,25.3,37.2,27.4,18.2,95,51,13,30.65,30.54,8,3,12,0.00
2014-5-14,75.6,56.9,27.3,41.7,33.7,26.3,97,50,18,30.60,30.42,11,3,11,0.00
2014-5-15,83.3,64.2,34.5,47.9,41.7,30.5,97,51,15,30.43,30.26,18,5,21,0.00
2014-5-16,55.0,49.2,40.6,46.8,44.2,40.4,99,83,67,30.44,30.29,14,3,17,0.00
2014-5-17,83.1,56.2,37.2,51.2,43.2,37.0,99,70,22,30.31,30.00,10,3,13,0.00
2014-5-18,69.3,51.2,36.7,49.7,43.5,36.4,99,77,35,30.05,29.92,10,3,13,0.00
2014-5-19,74.8,56.0,39.9,46.6,39.2,31.8,96,60,21,30.22,30.02,12,4,17,0.00
2014-5-20,78.3,54.3,30.4,45.4,36.1,29.5,99,60,18,30.27,30.20,12,3,16,0.00
2014-5-21,86.0,61.5,33.1,47.1,34.6,19.5,99,49,10,30.30,30.17,10,3,13,0.00
2014-5-22,90.7,64.9,37.4,49.7,39.2,27.2,96,49,11,30.32,30.21,12,3,13,0.00
2014-5-23,95.0,66.2,38.5,49.9,38.2,25.1,94,49,10,30.30,30.07,12,3,14,0.00
2014-5-24,79.5,58.5,42.4,53.2,46.6,39.4,92,68,35,30.26,30.16,13,3,14,0.00
2014-5-25,86.7,64.6,40.3,55.0,43.0,29.3,99,56,14,30.30,30.10,11,3,12,0.00
2014-5-26,84.9,66.2,48.4,51.9,43.4,39.3,80,48,21,30.28,30.15,16,4,19,0.00
2014-5-27,82.8,62.2,38.8,53.9,41.6,34.9,94,54,18,30.35,30.17,12,3,14,0.00
2014-5-28,78.4,58.7,43.0,57.6,51.0,42.7,99,79,42,30.19,30.04,10,3,17,0.00
2014-5-29,74.1,59.3,42.8,51.3,31.4,22.3,79,39,15,30.35,30.16,17,5,20,0.00
2014-5-30,83.8,61.2,32.2,44.5,33.2,18.2,92,45,10,30.39,30.19,12,3,13,0.00
2014-5-31,75.9,58.0,44.4,53.8,46.2,40.1,97,68,33,30.25,30.16,17,3,17,0.00
2014-6-1,75.6,53.9,40.3,55.4,46.5,40.0,99,80,34,30.30,30.23,9,2,12,0.00
2014-6-2,84.9,62.2,38.1,52.7,42.3,33.5,99,59,16,30.27,30.09,12,3,13,0.00
2014-6-3,82.6,60.6,43.5,53.4,45.8,40.0,98,64,25,30.17,30.05,13,3,20,0.00
2014-6-4,83.3,59.8,40.8,55.1,41.3,20.3,96,59,10,30.24,30.14,10,2,13,0.00
2014-6-5,60.8,53.4,45.0,46.1,42.6,40.0,86,67,53,30.34,30.16,17,5,22,0.00
2014-6-6,73.6,56.8,44.2,42.2,39.1,33.1,90,56,25,30.34,30.27,16,4,19,0.00
2014-6-7,76.1,59.1,39.2,47.4,35.1,19.8,93,50,14,30.34,30.26,11,2,11,0.00
2014-6-8,84.6,62.0,40.6,39.9,33.2,21.1,76,40,10,30.36,30.23,12,3,14,0.00
2014-6-9,83.5,63.7,39.4,47.3,36.4,27.6,87,44,14,30.24,30.08,19,5,19,0.00
2014-6-10,81.9,61.4,37.6,47.2,35.5,17.6,93,49,10,30.25,30.05,16,4,17,0.00
2014-6-11,71.4,56.1,40.1,47.5,42.3,38.4,95,63,36,30.35,30.25,14,4,17,0.00
2014-6-12,73.2,52.4,33.8,56.0,42.8,32.8,97,74,37,30.33,29.95,10,2,10,0.00
2014-6-13,76.6,60.5,48.7,59.2,44.4,32.4,99,62,22,30.09,29.96,15,4,17,0.00
2014-6-14,60.8,51.8,40.3,52.7,44.3,36.9,99,77,46,30.14,30.08,11,2,11,0.00
2014-6-15,79.3,54.4,36.0,50.6,42.1,34.0,99,71,21,30.14,29.95,10,3,13,0.00
2014-6-16,70.7,55.5,45.0,57.7,48.4,43.7,99,81,42,30.05,29.93,10,2,10,0.00
2014-6-17,67.3,53.0,39.7,49.9,43.6,36.4,99,75,36,30.17,30.00,14,3,18,0.00
2014-6-18,52.3,45.4,36.9,46.8,41.7,35.6,97,87,58,30.17,30.12,11,3,13,0.00
2014-6-19,71.1,56.8,45.3,53.0,47.0,39.4,99,74,34,30.22,30.12,11,4,14,0.00
2014-6-20,88.9,60.4,43.5,57.2,47.1,40.2,96,68,19,30.24,30.09,24,4,26,0.00
2014-6-21,83.8,66.4,46.2,48.8,40.3,22.5,97,48,11,30.28,30.19,14,4,18,0.00
2014-6-22,78.8,60.7,42.6,52.7,47.2,40.6,95,65,34,30.38,30.28,21,4,21,0.00
2014-6-23,81.9,64.5,45.0,55.3,49.7,44.4,99,64,28,30.39,30.29,17,4,17,0.00
2014-6-24,85.5,65.9,42.6,57.9,50.6,42.4,99,64,31,30.33,30.17,18,3,18,0.00
2014-6-25,89.4,69.8,53.8,61.5,48.8,26.1,99,58,11,30.22,30.08,11,4,18,0.00
2014-6-26,76.6,62.8,55.2,61.3,57.6,53.2,99,84,52,30.10,29.99,9,2,11,0.00
2014-6-27,79.7,63.1,51.1,60.0,53.7,49.3,99,75,37,30.07,29.99,12,3,14,0.00
2014-6-28,73.0,62.4,49.3,50.8,45.8,40.7,89,57,34,30.18,30.05,17,5,20,0.00
2014-6-29,80.4,62.5,42.6,45.2,41.3,35.8,92,51,22,30.30,30.17,20,6,20,0.00
2014-6-30,83.3,60.8,40.3,50.4,44.2,38.4,95,60,24,30.44,30.29,8,2,8,0.00
2014-7-1,84.0,64.9,41.9,57.2,49.4,41.6,99,63,32,30.49,30.34,14,4,17,0.00
2014-7-2,82.2,55.4,44.1,56.8,48.2,43.4,99,81,33,30.36,30.29,6,1,8,0.00
2014-7-3,103.6,90.9,66.4,54.6,46.4,32.6,64,24,10,30.20,30.10,12,4,12,0.00
2014-7-4,96.6,73.1,54.3,60.9,53.4,47.4,88,56,19,30.25,30.15,14,2,18,0.00
2014-7-5,94.6,75.1,56.1,61.8,43.9,27.8,86,43,12,30.33,30.20,14,4,16,0.00
2014-7-6,98.8,77.0,50.9,54.2,40.1,28.5,80,35,10,30.37,30.23,16,5,18,0.00
2014-7-7,86.5,69.2,53.6,57.1,51.3,45.9,89,56,31,30.46,30.27,14,4,15,0.00
2014-7-8,93.2,72.3,47.5,56.2,49.4,45.3,94,51,21,30.40,30.21,15,5,17,0.00
2014-7-9,96.8,76.4,50.9,55.8,46.4,27.1,86,42,10,30.26,30.08,15,3,15,0.00
2014-7-10,100.2,80.0,53.6,59.0,42.5,25.9,87,35,10,30.17,30.06,21,4,21,0.00
2014-7-11,83.8,68.2,59.0,57.5,53.8,44.6,82,62,38,30.45,30.17,24,4,24,0.00
2014-7-12,96.1,72.4,49.8,60.5,46.9,31.6,99,53,12,30.46,30.39,14,3,16,0.00
2014-7-13,97.9,75.1,50.0,51.5,43.5,36.2,77,39,12,30.50,30.38,14,4,18,0.00
2014-7-14,91.6,73.8,53.2,57.6,50.8,45.3,78,48,25,30.52,30.30,19,5,22,0.00
2014-7-15,78.6,65.4,55.0,64.8,60.2,51.9,99,85,54,30.42,30.32,16,2,16,0.00
2014-7-16,95.9,70.2,48.2,66.8,54.0,43.6,99,67,18,30.34,30.18,7,2,7,0.00
2014-7-17,99.9,78.6,53.1,66.2,48.9,26.5,99,48,10,30.21,30.00,14,4,18,0.00
2014-7-18,87.8,68.9,50.4,55.9,47.3,37.6,94,53,18,30.23,30.11,10,2,16,0.00
2014-7-19,85.5,70.6,54.9,51.7,47.4,38.3,75,46,28,30.17,30.08,14,4,14,0.00
2014-7-20,97.0,79.1,60.1,54.1,48.6,36.5,73,37,13,30.14,30.04,14,6,24,0.00
2014-7-21,91.6,70.7,53.8,63.4,49.4,27.3,99,56,12,30.34,30.10,13,3,14,0.00
2014-7-22,93.9,70.2,59.2,68.3,54.7,45.1,99,62,22,30.43,30.34,10,2,13,0.00
2014-7-23,100.9,75.6,55.2,59.6,54.0,41.3,99,60,16,30.47,30.10,31,4,34,0.00
2014-7-24,82.6,66.3,51.1,62.3,45.9,28.9,99,56,17,30.29,30.14,19,5,23,0.00
2014-7-25,84.7,69.1,54.3,42.5,38.1,32.1,60,35,17,30.29,30.21,18,7,22,0.00
2014-7-26,93.7,69.4,43.7,48.3,38.1,26.5,85,41,10,30.44,30.29,15,4,15,0.00
2014-7-27,99.1,72.8,43.5,49.7,38.5,28.8,90,40,10,30.52,30.37,14,4,16,0.00
2014-7-28,96.1,74.9,48.4,49.0,43.4,39.6,78,38,16,30.49,30.34,16,4,16,0.00
2014-7-29,98.4,76.9,56.7,57.1,46.6,31.0,80,41,11,30.44,30.33,19,4,19,0.00
2014-7-30,99.3,76.2,51.4,55.8,45.8,33.0,83,42,10,30.42,30.31,12,3,15,0.00
2014-7-31,99.1,74.6,49.5,55.9,43.2,27.4,85,42,10,30.40,30.33,11,2,13,0.00
2014-8-1,98.4,74.8,46.9,53.9,43.3,31.3,81,40,10,30.44,30.31,18,4,18,0.00
2014-8-2,97.0,75.7,55.9,59.6,51.7,40.1,88,48,17,30.43,30.30,10,3,15,0.00
2014-8-3,99.3,74.3,54.5,55.9,48.5,35.6,74,47,11,30.40,30.26,17,3,17,0.00
2014-8-4,87.4,69.6,52.2,61.7,54.8,48.1,95,62,37,30.41,30.28,15,4,18,0.00
2014-8-5,95.4,73.0,54.1,65.8,55.0,43.7,99,63,18,30.36,30.22,11,3,11,0.00
2014-8-6,97.3,68.3,49.3,51.0,44.2,32.4,89,52,12,30.29,30.17,10,2,14,0.00
2014-8-7,100.0,76.2,51.6,57.9,42.5,27.0,86,40,10,30.29,30.14,11,3,15,0.00
2014-8-8,93.2,72.3,52.5,54.4,46.5,38.7,79,45,15,30.28,30.17,11,3,16,0.00
2014-8-9,90.7,70.3,51.6,56.1,47.7,41.1,91,51,19,30.45,30.27,14,4,17,0.00
2014-8-10,100.4,74.1,46.9,51.4,39.9,28.6,82,38,10,30.46,30.34,15,3,17,0.00
2014-8-11,84.7,62.5,49.6,49.5,42.5,38.8,74,51,22,30.49,30.31,10,2,11,0.00
2014-8-12,101.5,76.9,52.5,54.2,45.2,38.5,73,38,13,30.35,30.21,14,2,16,0.00
2014-8-13,100.8,83.9,69.3,55.9,46.5,31.6,59,33,10,30.32,30.14,15,4,17,0.00
2014-8-14,92.8,72.8,61.3,61.4,56.0,47.5,94,62,24,30.26,30.18,6,2,8,0.00
2014-8-15,85.6,66.9,56.8,64.4,57.3,52.2,98,73,42,30.34,30.23,8,2,12,0.00
2014-8-16,85.6,64.6,48.7,56.7,50.4,45.5,99,67,26,30.32,30.28,18,4,18,0.00
2014-8-17,91.2,71.4,51.8,59.7,51.2,45.4,91,55,21,30.34,30.28,11,4,17,0.00
2014-8-18,96.8,73.1,48.6,60.5,46.7,27.5,98,51,10,30.34,30.11,12,3,17,0.00
2014-8-19,97.5,71.1,46.9,55.6,41.4,26.7,87,45,10,30.13,29.96,14,3,17,0.00
2014-8-20,89.1,69.5,53.8,57.6,48.2,42.7,91,51,20,30.25,30.03,15,3,15,0.00
2014-8-21,71.8,59.1,52.5,57.5,54.3,52.3,99,85,58,30.37,30.25,13,3,14,0.00
2014-8-22,66.9,55.9,49.3,56.0,52.8,49.0,99,90,64,30.40,30.33,13,4,14,0.00
2014-8-23,50.7,48.0,46.2,50.3,47.7,46.0,99,99,97,30.42,30.36,11,3,12,0.00
2014-8-24,61.7,50.2,45.7,54.3,48.4,45.2,99,94,72,30.41,30.34,4,1,5,0.00
2014-8-25,80.8,56.5,41.9,54.4,46.9,41.6,99,77,31,30.41,30.25,9,2,11,0.00
2014-8-26,88.5,63.6,40.6,57.3,45.2,35.5,99,62,16,30.38,30.28,11,3,13,0.00
2014-8-27,95.2,67.5,43.9,57.3,48.5,42.8,99,60,17,30.36,30.25,11,3,14,0.00
2014-8-28,92.7,69.9,47.3,60.3,45.9,27.5,99,54,10,30.38,30.16,21,4,21,0.00
2014-8-29,88.0,60.7,44.1,56.9,48.8,40.9,99,73,20,30.39,30.14,9,2,11,0.00
2014-8-30,82.8,69.2,54.5,46.0,42.9,38.5,67,41,22,30.09,30.02,15,4,20,0.00
2014-8-31,75.4,59.5,46.4,52.9,45.1,38.8,91,62,30,30.20,30.08,12,3,17,0.00
2014-9-1,78.8,58.7,43.5,52.3,41.3,34.6,93,59,22,30.25,30.18,14,3,17,0.00
2014-9-2,89.4,62.8,43.9,51.0,42.1,32.6,91,55,15,30.20,29.96,17,3,18,0.00
2014-9-3,73.4,58.2,45.9,50.6,39.5,27.5,87,55,21,30.33,29.93,19,4,19,0.00
2014-9-4,79.5,57.8,41.9,47.6,40.5,34.8,93,59,22,30.41,30.33,11,2,11,0.00
2014-9-5,84.0,56.9,32.4,46.8,36.9,24.9,99,57,12,30.53,30.39,10,3,11,0.00
2014-9-6,90.1,60.0,33.8,47.0,35.7,24.3,98,53,10,30.48,30.27,10,2,10,0.00
2014-9-7,92.5,63.6,38.7,49.3,34.0,18.0,93,47,10,30.27,30.08,14,3,21,0.00
2014-9-8,90.7,58.9,39.4,50.4,37.0,22.3,87,57,10,30.29,30.01,17,4,18,0.00
2014-9-9,49.6,42.5,37.2,38.9,36.3,34.3,97,80,61,30.44,30.29,16,4,16,0.00
2014-9-10,45.9,38.5,34.2,41.4,37.1,33.9,99,95,82,30.63,30.37,12,2,12,0.00
2014-9-11,59.0,39.6,29.3,38.4,34.0,29.1,99,83,39,30.71,30.57,10,3,12,0.00
2014-9-12,76.3,48.6,28.0,40.1,30.6,24.7,99,60,17,30.57,30.29,13,4,14,0.00
2014-9-13,65.3,45.5,31.1,41.6,36.9,29.3,97,76,39,30.50,30.32,10,2,11,0.00
2014-9-14,76.3,48.8,28.2,45.8,36.0,28.0,99,71,23,30.39,30.31,11,2,14,0.00
2014-9-15,91.0,55.2,31.5,47.5,35.9,21.9,99,62,10,30.40,30.23,9,2,13,0.00
2014-9-16,81.7,56.9,40.8,61.9,45.9,36.9,91,70,29,30.29,30.17,5,1,6,0.00
2014-9-17,91.2,62.7,45.9,65.3,52.3,44.8,99,74,25,30.20,30.05,5,1,7,0.00
2014-9-18,85.5,64.6,48.2,59.6,51.0,45.7,92,66,30,30.07,29.98,17,3,19,0.00
2014-9-19,81.9,64.5,50.7,49.4,46.6,43.4,83,54,28,30.32,30.07,12,4,18,0.00
2014-9-20,83.1,62.4,40.6,53.1,45.4,39.9,99,61,25,30.48,30.32,12,3,14,0.00
2014-9-21,88.0,60.5,37.8,54.0,46.6,37.5,99,68,26,30.50,30.25,9,2,11,0.00
2014-9-22,89.1,61.9,45.1,56.1,49.6,44.3,99,70,27,30.25,30.16,12,2,14,0.00
2014-9-23,83.3,56.6,46.8,59.0,51.3,46.1,99,85,30,30.29,30.21,8,2,14,0.00
2014-9-24,90.7,60.9,50.2,61.0,51.9,46.7,99,79,22,30.25,30.17,12,2,14,0.00
2014-9-25,97.2,88.4,81.0,49.9,32.6,22.3,32,15,10,30.17,29.98,17,7,24,0.00
2014-9-26,81.9,66.2,55.4,55.1,46.1,38.8,85,52,23,30.32,30.19,11,3,14,0.00
2014-9-27,60.1,52.3,48.6,50.6,46.8,39.2,99,84,46,30.46,30.30,14,4,17,0.00
2014-9-28,50.2,49.0,48.2,49.4,48.2,47.2,99,97,93,30.47,30.32,11,3,13,0.00
2014-9-29,74.8,58.1,43.0,51.5,47.9,42.7,99,72,41,30.32,29.99,17,4,19,0.00
2014-9-30,69.3,55.8,41.5,50.8,45.3,36.8,98,69,41,30.18,30.00,13,4,14,0.00
2014-10-1,64.6,46.6,39.7,46.1,36.9,31.4,99,74,30,30.25,30.17,16,3,16,0.00
2014-10-2,50.2,39.0,29.3,36.5,33.5,29.1,99,83,52,30.63,30.23,18,2,18,0.00
2014-10-3,70.9,44.5,24.3,42.9,31.5,24.0,99,68,21,30.61,30.40,11,2,15,0.00
2014-10-4,83.1,57.5,46.2,50.2,39.3,30.7,87,53,22,30.40,30.26,9,3,11,0.00
2014-10-5,82.8,53.5,39.0,45.3,41.4,38.2,98,72,23,30.34,30.22,8,2,8,0.00
2014-10-6,86.4,56.6,41.5,53.3,46.0,38.9,95,72,24,30.22,30.11,11,2,14,0.00
2014-10-7,88.7,59.6,41.0,52.4,46.7,39.9,97,68,22,30.25,30.14,11,2,13,0.00
2014-10-8,71.6,51.0,42.8,49.6,44.8,41.6,98,82,41,30.30,30.17,8,2,13,0.00
2014-10-9,67.5,47.2,38.8,47.9,42.9,38.6,99,87,47,30.38,30.30,8,1,10,0.00
2014-10-10,73.8,44.6,30.9,51.3,39.7,30.7,99,86,43,30.35,30.27,5,1,5,0.00
2014-10-11,73.9,56.6,43.7,46.5,42.3,37.9,99,66,28,30.12,30.00,11,3,16,0.00
2014-10-12,66.0,47.0,37.4,49.2,39.2,32.5,99,79,31,30.37,30.07,14,2,21,0.00
2014-10-13,62.8,50.2,35.2,38.2,35.1,31.8,90,60,35,30.37,30.16,13,3,15,0.00
2014-10-14,80.2,56.6,42.3,39.7,37.1,31.8,80,51,18,30.16,30.00,16,3,16,0.00
2014-10-15,81.7,54.6,39.7,48.5,37.2,29.6,88,58,15,30.16,29.81,19,4,21,0.00
2014-10-16,60.1,47.9,35.4,36.1,33.7,29.3,80,59,32,30.34,30.17,9,3,15,0.00
2014-10-17,71.6,47.8,26.6,38.2,30.5,25.2,96,59,20,30.34,30.18,11,2,11,0.00
2014-10-18,76.5,47.7,35.6,45.0,36.2,30.3,89,68,27,30.27,30.18,14,2,16,0.00
2014-10-19,82.2,57.8,40.1,38.9,36.3,33.4,86,52,18,30.26,30.16,12,3,13,0.00
2014-10-20,87.1,47.2,35.6,40.5,35.4,28.2,93,70,12,30.17,29.97,8,2,11,0.00
2014-10-21,70.0,45.8,40.5,48.4,41.3,36.0,99,85,40,30.20,29.95,8,2,13,0.00
2014-10-22,67.5,51.2,36.5,39.3,36.4,34.2,99,62,30,30.25,30.13,17,5,20,0.00
2014-10-23,64.8,57.5,48.9,43.7,38.3,33.4,69,49,41,30.18,30.08,21,6,22,0.00
2014-10-24,64.9,51.7,42.3,45.5,39.5,34.8,96,65,35,30.33,30.17,11,3,17,0.00
2014-10-25,60.3,41.4,36.0,46.8,38.9,35.7,99,92,60,30.30,30.05,4,1,5,0.00
2014-10-26,59.5,51.1,41.4,29.5,27.5,23.9,62,42,27,30.11,30.02,21,7,24,0.00
2014-10-27,55.6,39.4,27.3,39.1,32.1,26.3,97,76,40,30.34,30.11,11,2,13,0.00
2014-10-28,61.7,41.7,24.8,32.7,26.8,20.4,99,61,22,30.34,30.23,16,4,16,0.00
2014-10-29,64.9,53.2,40.3,40.1,37.5,31.6,75,57,34,30.34,30.20,17,5,17,0.00
2014-10-31,77.4,56.2,34.7,41.6,35.9,31.8,90,54,19,30.06,30.00,8,2,11,0.00
2014-11-1,63.7,41.8,30.0,42.9,35.7,29.2,99,82,42,30.02,29.89,11,2,14,0.00
2014-11-2,49.1,38.5,28.9,41.0,33.2,26.7,99,82,62,30.25,29.96,11,3,13,0.00
2014-11-3,54.7,41.1,27.9,36.1,31.8,25.6,93,71,45,30.38,30.24,14,4,17,0.00
2014-11-4,55.4,48.5,44.4,40.1,36.8,34.1,74,64,52,30.36,30.22,16,6,17,0.00
2014-11-5,63.5,50.3,40.8,40.7,37.9,35.0,89,64,36,30.52,30.34,13,4,14,0.00
2014-11-6,69.8,60.7,53.4,43.1,38.9,35.4,64,45,30,30.48,30.08,21,8,24,0.00
2014-11-7,66.7,50.7,34.0,40.4,34.3,30.2,89,56,30,30.54,30.11,21,4,30,0.00
2014-11-8,64.2,51.7,36.5,33.7,27.4,16.5,82,42,16,30.49,30.19,16,5,16,0.00
2014-11-9,58.5,42.4,12.0,42.7,28.5,8.6,95,62,34,30.20,29.78,19,5,21,0.00
2014-11-10,22.1,13.0,2.7,16.3,9.1,0.2,92,84,69,30.67,30.20,11,2,11,0.00
2014-11-11,15.8,4.7,-0.6,3.8,-1.0,-5.1,90,77,52,30.79,30.67,8,2,9,0.00
2014-11-12,27.3,2.0,-15.3,6.7,-6.4,-19.0,86,71,31,30.79,30.62,6,2,8,0.00
2014-11-13,27.9,-1.4,-18.4,9.3,-9.6,-22.2,84,71,34,30.63,30.30,7,1,8,0.00
2014-11-14,27.0,2.0,-16.6,5.7,-5.0,-20.2,89,74,35,30.46,30.30,8,1,10,0.00
2014-11-15,35.2,12.6,-2.4,11.2,2.7,-5.1,91,68,28,30.56,30.46,13,2,13,0.00
2014-11-16,39.2,21.0,6.6,18.5,10.7,3.5,93,66,39,30.63,30.48,9,3,13,0.00
2014-11-17,50.2,22.2,1.4,23.6,9.5,-0.5,93,64,21,30.61,29.81,11,3,11,0.00
2014-11-18,44.4,32.2,16.0,24.6,17.0,13.1,92,56,30,30.40,29.58,13,3,13,0.00
2014-11-19,59.2,26.3,5.5,29.1,16.2,4.0,95,73,21,30.40,30.17,8,1,8,0.00
2014-11-20,54.9,37.3,23.7,31.4,25.4,19.7,86,63,30,30.17,30.09,11,2,14,0.00
2014-11-21,56.5,45.8,38.1,30.7,28.7,25.9,67,52,36,30.13,29.77,7,3,28,0.00
2014-11-22,53.8,44.2,32.0,38.5,27.1,18.9,77,52,32,29.99,29.65,8,4,24,0.00
2014-11-23,49.1,34.9,23.4,28.1,23.2,19.0,92,65,32,30.22,29.99,5,2,21,0.00
2014-11-24,50.7,36.4,24.8,30.5,22.9,19.5,90,61,31,30.40,30.12,7,2,24,0.00
2014-11-25,41.9,36.4,30.0,37.4,29.2,21.2,96,76,46,30.38,30.08,8,2,23,0.00
2014-11-26,46.8,35.2,29.7,37.7,33.2,28.7,99,93,67,30.37,30.23,2,0,5,0.00
2014-11-27,65.5,53.5,32.2,39.7,36.5,31.8,99,54,34,30.24,29.97,9,4,28,0.00
2014-11-28,59.4,43.2,3.9,38.7,29.3,-0.8,87,60,42,29.99,29.69,8,5,30,0.00
2014-11-29,6.8,-3.4,-10.3,-0.9,-9.9,-16.0,84,73,42,30.26,29.86,6,2,17,0.00
2014-11-30,27.7,-3.1,-18.4,6.0,-10.7,-22.4,88,73,30,30.47,30.26,3,0,6,0.00
2014-12-1,43.0,15.0,-7.8,22.2,7.1,-10.8,94,74,31,30.37,30.11,6,1,15,0.00
2014-12-2,50.2,27.9,10.9,17.7,14.2,7.9,90,61,21,30.29,30.18,4,1,14,0.00
2014-12-3,57.2,23.4,9.9,24.9,15.6,7.3,95,77,22,30.27,30.07,3,0,6,0.00
2014-12-4,46.4,34.0,17.8,37.3,30.3,16.2,99,87,65,30.22,30.03,3,1,8,0.00
2014-12-5,60.1,34.8,26.1,42.6,30.9,25.8,99,88,41,30.39,30.22,2,0,9,0.00
2014-12-6,61.3,37.4,25.5,40.2,31.3,25.3,99,81,40,30.37,30.22,5,1,20,0.00
2014-12-7,57.9,41.0,29.1,33.8,29.6,25.2,91,67,33,30.48,30.29,6,2,17,0.00
2014-12-8,59.4,34.9,25.7,34.9,27.4,24.0,99,77,32,30.45,30.34,4,1,13,0.00
2014-12-9,63.0,45.8,26.6,35.4,32.9,26.4,99,63,33,30.34,30.22,7,2,17,0.00
2014-12-10,61.0,45.0,33.3,38.9,34.0,29.6,96,68,38,30.27,29.97,5,2,24,0.00
2014-12-11,60.1,53.5,39.4,36.5,28.6,24.8,63,39,27,30.00,29.89,10,3,30,0.00
2014-12-12,68.4,56.3,44.2,33.7,30.7,26.0,61,39,23,29.98,29.90,7,3,27,0.00
2014-12-13,45.5,38.7,32.5,37.4,32.5,29.7,99,79,56,30.33,29.93,3,1,7,0.00
2014-12-14,35.4,29.7,24.4,32.3,28.2,24.0,99,94,84,30.47,30.33,0,0,0,0.00
2014-12-15,49.1,24.7,13.8,31.9,21.0,13.2,99,88,41,30.47,30.31,2,0,8,0.00
2014-12-16,46.4,24.8,11.1,36.2,21.9,10.5,99,90,46,30.32,30.17,0,0,2,0.00
2014-12-17,54.5,31.1,22.6,38.8,28.0,22.4,99,90,45,30.18,30.12,2,0,7,0.00
2014-12-18,41.7,31.8,24.1,30.0,26.9,22.7,98,83,59,30.22,30.17,4,1,15,0.00
2014-12-19,54.9,36.1,24.6,32.3,28.6,23.8,99,77,40,30.19,30.08,4,1,17,0.00
2014-12-20,44.4,42.0,37.4,31.7,28.5,25.2,71,59,54,30.11,29.82,10,3,24,0.00
2014-12-21,59.0,41.9,26.2,38.5,30.1,21.4,89,65,25,30.02,29.71,8,2,24,0.00
2014-12-22,41.2,32.0,24.8,32.5,26.0,23.0,97,80,50,30.42,30.02,3,0,10,0.00
2014-12-23,45.0,33.6,19.2,27.3,21.9,17.1,93,65,39,30.48,30.14,8,2,22,0.00
2014-12-24,45.5,39.3,32.7,35.5,31.6,28.1,99,75,58,30.14,29.77,7,2,20,0.00
2014-12-25,43.3,20.4,5.5,27.7,17.5,4.3,99,89,50,30.22,30.12,2,0,7,0.00
2014-12-26,44.4,18.8,5.5,27.2,15.5,4.3,99,89,41,30.37,30.22,2,0,5,0.00
2014-12-27,40.1,27.5,11.7,24.0,19.6,10.6,96,73,49,30.31,30.06,6,2,18,0.00
2014-12-28,29.1,19.1,9.3,25.8,16.3,6.4,98,89,79,30.60,30.05,3,1,12,0.00
2014-12-29,9.1,2.1,-9.4,6.6,-2.3,-12.7,89,81,69,30.96,30.60,4,1,11,0.00
2014-12-30,30.6,-1.3,-23.8,4.6,-10.3,-27.9,86,68,25,30.96,30.63,4,1,12,0.00
2014-12-31,40.3,15.7,6.1,10.5,4.0,-1.2,85,64,21,30.64,30.35,4,1,10,0.00
2015-1-1,48.6,18.3,4.5,14.1,7.9,1.8,93,69,19,30.37,30.24,3,1,8,0.00
2015-1-2,45.5,28.9,9.3,30.2,20.7,5.7,88,72,50,30.33,30.01,7,3,24,0.00